Overview Statistics Trail Chart Weather Telemetry Raw packets
 

This is the latest recevied weather packets stored in our database for station/object JA7ZQY-10. If no packets are shown the sender has not sent any weather packets the latest 10 day(s).

<< 10 11 12 13 14 15 16 >>
Time Temp. Humidity Pressure Rain* Wind** Luminosity Snow
1788408969 24.44° C 80% 1009.8 hPa 0 mm - - -
1788408369 24.44° C 79% 1010 hPa 0 mm - - -
1788407768 24.44° C 78% 1009.9 hPa 0 mm - - -
1788407168 24.44° C 78% 1009.9 hPa 0 mm - - -
1788406569 24.44° C 78% 1010.1 hPa 0 mm - - -
1788405969 24.44° C 76% 1010.2 hPa 0 mm - - -
1788405368 24.44° C 78% 1009.9 hPa 0 mm - - -
1788404768 24.44° C 79% 1010 hPa 0 mm - - -
1788404169 23.89° C 80% 1010 hPa 0 mm - - -
1788403568 23.89° C 80% 1009.9 hPa 0 mm - - -
1788402968 23.89° C 81% 1009.9 hPa 0 mm - - -
1788402369 23.89° C 81% 1010.1 hPa 0 mm - - -
1788401768 23.89° C 81% 1010.1 hPa 0 mm - - -
1788401169 23.89° C 81% 1010 hPa 0 mm - - -
1788400568 23.89° C 81% 1010.3 hPa 0 mm - - -
1788399969 23.89° C 81% 1010.7 hPa 0 mm - - -
1788399368 23.89° C 84% 1010.6 hPa 0 mm - - -
1788398768 23.89° C 86% 1010.9 hPa 0 mm - - -
1788398169 23.33° C 86% 1010.6 hPa 0 mm - - -
1788397569 23.89° C 86% 1010.6 hPa 0 mm - - -
1788396968 23.89° C 87% 1010.8 hPa 0 mm - - -
1788396370 23.89° C 87% 1010.6 hPa 0.25 mm - - -
1788395769 23.89° C 90% 1010.4 hPa 0.25 mm - - -
1788395168 23.33° C 90% 1010.8 hPa 0.25 mm - - -
1788394568 23.33° C 90% 1010.5 hPa 0.25 mm - - -

* Rain latest hour (hover to see other rain measurements)
** Current wind speed in m/s (hover to see current wind gust speed)